Location: Cercedilla
(40.7379°N, 4.0638°W)
Time: 09:30:14
(UTC+00:00)

Cosmos 1538 Rocket - Visible Passes

Search period start: 24 September 2020 00:00
Search period end: 04 October 2020 00:00
Orbit: 752 x 792 km, 74.0° (Epoch: 23 September)

Date Brightness Start Highest point End Pass type
(mag) Time Alt. Az. Time Alt. Az. Time Alt. Az.
25 Sep 6.9 05:36:05 10° SSE 05:39:59 22° E 05:43:56 10° NE visible
26 Sep 7.2 05:02:12 10° ESE 05:04:27 13° E 05:06:42 10° ENE visible
28 Sep 5.5 05:29:30 10° S 05:34:17 40° ESE 05:39:08 10° NE visible
29 Sep 6.5 04:54:34 10° SSE 04:58:38 24° E 05:02:45 10° NE visible
30 Sep 7.0 04:20:28 10° SE 04:23:04 14° E 04:25:41 10° ENE visible
01 Oct 4.2 05:23:34 10° S 05:28:42 75° ESE 05:33:55 10° NNE visible
02 Oct 5.2 04:48:04 10° S 04:52:57 44° ESE 04:57:53 10° NNE visible
03 Oct 6.1 04:13:04 10° SSE 04:17:17 26° E 04:21:32 10° NE visible
